• In Hungary
  • List of Countries
  • For 7 days
  • Water Temperature
  • Satellite Maps
  • Weather Map
  • News
  • Weather Widgets
  • user-avatar
    Login

    Hourly Weather Vanadzor

    Today, 20 January, Saturday

    Time Temperature Precipitation Wind Pressure Humidity
    00:00 0°C° 0.1 mm 1 mps 629 mmHg 87%
    01:00 0°C° 0.1 mm 1 mps 630 mmHg 87%
    02:00 0°C° 0.1 mm 1 mps 630 mmHg 88%
    03:00 0°C° 0.1 mm 1 mps 631 mmHg 88%
    04:00 -2°C° 0.1 mm 2 mps 631 mmHg 88%
    05:00 -2°C° 0.1 mm 2 mps 631 mmHg 87%
    06:00 -2°C° 0.1 mm 2 mps 632 mmHg 86%
    07:00 -2°C° 0 mm 2 mps 632 mmHg 83%
    08:00 0°C° 0 mm 1 mps 633 mmHg 81%
    09:00 0°C° 0 mm 1 mps 633 mmHg 78%
    10:00 +1°C° 0 mm 1 mps 633 mmHg 75%
    11:00 +2°C° 0 mm 1 mps 634 mmHg 72%
    12:00 +4°C° 0 mm 1 mps 634 mmHg 70%
    13:00 +4°C° 0 mm 1 mps 634 mmHg 70%
    14:00 +4°C° 0 mm 1 mps 634 mmHg 70%
    15:00 +3°C° 0 mm 1 mps 634 mmHg 70%
    16:00 +2°C° 0 mm 1 mps 634 mmHg 72%
    17:00 0°C° 0 mm 1 mps 634 mmHg 74%
    18:00 -1°C° 0 mm 1 mps 634 mmHg 76%
    19:00 -2°C° 0 mm 1 mps 634 mmHg 74%
    20:00 -2°C° 0 mm 1 mps 635 mmHg 73%
    21:00 -2°C° 0 mm 1 mps 635 mmHg 71%
    22:00 -2°C° 0 mm 1 mps 635 mmHg 71%
    23:00 -4°C° 0 mm 2 mps 635 mmHg 71%

    Tomorrow, 21 January, Sunday

    Time Temperature Precipitation Wind Pressure Humidity
    00:00 -4°C° 0 mm 2 mps 635 mmHg 70%
    01:00 -5°C° 0 mm 2 mps 635 mmHg 71%
    02:00 -5°C° 0 mm 2 mps 635 mmHg 71%
    03:00 -5°C° 0 mm 2 mps 635 mmHg 72%
    04:00 -5°C° 0 mm 2 mps 635 mmHg 71%
    05:00 -5°C° 0 mm 2 mps 635 mmHg 71%
    06:00 -5°C° 0 mm 2 mps 635 mmHg 71%
    07:00 -4°C° 0 mm 2 mps 635 mmHg 69%
    08:00 -4°C° 0 mm 2 mps 636 mmHg 67%
    09:00 -4°C° 0 mm 3 mps 636 mmHg 66%
    10:00 -2°C° 0 mm 3 mps 636 mmHg 64%
    11:00 0°C° 0 mm 3 mps 636 mmHg 62%
    12:00 +1°C° 0 mm 3 mps 636 mmHg 61%
    13:00 +1°C° 0 mm 3 mps 636 mmHg 61%
    14:00 +2°C° 0 mm 2 mps 635 mmHg 62%
    15:00 +2°C° 0 mm 2 mps 635 mmHg 62%
    16:00 +1°C° 0 mm 2 mps 635 mmHg 63%
    17:00 -2°C° 0 mm 2 mps 635 mmHg 64%
    18:00 -3°C° 0 mm 2 mps 635 mmHg 65%
    19:00 -3°C° 0 mm 2 mps 635 mmHg 64%
    20:00 -3°C° 0 mm 2 mps 635 mmHg 62%
    21:00 -4°C° 0 mm 3 mps 635 mmHg 61%
    22:00 -4°C° 0 mm 3 mps 634 mmHg 61%
    23:00 -4°C° 0 mm 3 mps 634 mmHg 61%

    Day after tomorrow, 22 January, Monday

    Time Temperature Precipitation Wind Pressure Humidity
    00:00 -4°C° 0 mm 3 mps 634 mmHg 62%
    01:00 -4°C° 0 mm 3 mps 634 mmHg 62%
    02:00 -4°C° 0 mm 3 mps 633 mmHg 62%
    03:00 -4°C° 0 mm 3 mps 633 mmHg 61%
    04:00 -4°C° 0 mm 3 mps 633 mmHg 61%
    05:00 -4°C° 0 mm 3 mps 632 mmHg 60%
    06:00 -3°C° 0 mm 2 mps 632 mmHg 60%
    07:00 -2°C° 0 mm 2 mps 632 mmHg 60%
    08:00 -2°C° 0 mm 2 mps 632 mmHg 59%
    09:00 -1°C° 0 mm 2 mps 632 mmHg 59%
    10:00 +1°C° 0 mm 2 mps 632 mmHg 58%
    11:00 +2°C° 0 mm 2 mps 631 mmHg 57%
    12:00 +3°C° 0 mm 2 mps 631 mmHg 56%
    13:00 +3°C° 0 mm 2 mps 631 mmHg 57%
    14:00 +3°C° 0 mm 2 mps 630 mmHg 57%
    15:00 +3°C° 0 mm 2 mps 630 mmHg 58%
    16:00 +1°C° 0 mm 2 mps 630 mmHg 58%
    17:00 -1°C° 0 mm 2 mps 629 mmHg 57%
    18:00 -2°C° 0 mm 2 mps 629 mmHg 57%
    19:00 -3°C° 0 mm 2 mps 629 mmHg 56%
    20:00 -3°C° 0 mm 2 mps 629 mmHg 56%
    21:00 -3°C° 0 mm 2 mps 629 mmHg 55%
    22:00 -3°C° 0 mm 2 mps 629 mmHg 56%
    23:00 -5°C° 0 mm 3 mps 629 mmHg 57%

    23 January, Tuesday

    Time Temperature Precipitation Wind Pressure Humidity
    00:00 -5°C° 0 mm 3 mps 629 mmHg 58%
    01:00 -5°C° 0 mm 3 mps 629 mmHg 59%
    02:00 -5°C° 0 mm 3 mps 628 mmHg 59%
    03:00 -5°C° 0 mm 3 mps 628 mmHg 60%
    04:00 -5°C° 0 mm 3 mps 628 mmHg 61%
    05:00 -5°C° 0 mm 3 mps 628 mmHg 61%
    06:00 -6°C° 0 mm 3 mps 628 mmHg 62%
    07:00 -5°C° 0 mm 3 mps 628 mmHg 62%
    08:00 -5°C° 0 mm 3 mps 629 mmHg 62%
    09:00 -4°C° 0 mm 3 mps 629 mmHg 62%
    10:00 -2°C° 0 mm 3 mps 629 mmHg 61%
    11:00 0°C° 0 mm 3 mps 629 mmHg 60%
    12:00 +1°C° 0 mm 3 mps 629 mmHg 59%
    13:00 +1°C° 0 mm 3 mps 628 mmHg 60%
    14:00 +2°C° 0 mm 2 mps 628 mmHg 61%
    15:00 +2°C° 0 mm 2 mps 628 mmHg 63%
    16:00 +1°C° 0 mm 2 mps 628 mmHg 65%
    17:00 -1°C° 0 mm 2 mps 628 mmHg 66%
    18:00 -2°C° 0 mm 2 mps 628 mmHg 68%
    19:00 -2°C° 0.1 mm 2 mps 628 mmHg 69%
    20:00 -2°C° 0.1 mm 2 mps 628 mmHg 71%
    21:00 -2°C° 0.1 mm 2 mps 629 mmHg 72%
    22:00 -2°C° 0.1 mm 2 mps 629 mmHg 74%
    23:00 -2°C° 0.1 mm 2 mps 629 mmHg 75%

    24 January, Wednesday

    Time Temperature Precipitation Wind Pressure Humidity
    00:00 -2°C° 0.1 mm 2 mps 629 mmHg 77%
    01:00 -2°C° 0.2 mm 2 mps 629 mmHg 78%
    02:00 -1°C° 0.2 mm 1 mps 629 mmHg 79%
    03:00 -1°C° 0.2 mm 1 mps 629 mmHg 80%
    04:00 -1°C° 0.1 mm 1 mps 629 mmHg 80%
    05:00 -1°C° 0.1 mm 1 mps 629 mmHg 80%
    06:00 -2°C° 0.1 mm 1 mps 629 mmHg 80%
    07:00 -1°C° 0.1 mm 1 mps 630 mmHg 79%
    08:00 -1°C° 0.1 mm 1 mps 630 mmHg 78%
    09:00 0°C° 0.1 mm 1 mps 631 mmHg 77%
    10:00 +1°C° 0.3 mm 1 mps 631 mmHg 78%
    11:00 +1°C° 0.3 mm 1 mps 631 mmHg 78%
    12:00 +2°C° 0.3 mm 1 mps 631 mmHg 78%
    13:00 +2°C° 0.5 mm 1 mps 631 mmHg 80%
    14:00 +2°C° 0.5 mm 1 mps 631 mmHg 81%
    15:00 +1°C° 0.5 mm 1 mps 631 mmHg 83%
    16:00 +1°C° 0.3 mm 1 mps 632 mmHg 84%
    17:00 0°C° 0.3 mm 1 mps 632 mmHg 86%
    18:00 0°C° 0.3 mm 1 mps 632 mmHg 87%
    19:00 -1°C° 0.1 mm 1 mps 632 mmHg 87%
    20:00 -1°C° 0.1 mm 1 mps 633 mmHg 87%
    21:00 -2°C° 0.1 mm 1 mps 633 mmHg 87%
    22:00 -2°C° 0.1 mm 1 mps 633 mmHg 87%
    23:00 -2°C° 0.1 mm 1 mps 633 mmHg 87%

    25 January, Thursday

    Time Temperature Precipitation Wind Pressure Humidity
    00:00 -3°C° 0.1 mm 1 mps 634 mmHg 87%
    01:00 -3°C° 0 mm 1 mps 634 mmHg 86%
    02:00 -3°C° 0 mm 1 mps 634 mmHg 86%
    03:00 -4°C° 0 mm 1 mps 634 mmHg 86%
    04:00 -4°C° 0 mm 1 mps 634 mmHg 86%
    05:00 -4°C° 0 mm 1 mps 634 mmHg 86%
    06:00 -4°C° 0 mm 1 mps 634 mmHg 86%
    07:00 -3°C° 0.1 mm 1 mps 635 mmHg 85%
    08:00 -3°C° 0.1 mm 1 mps 635 mmHg 84%
    09:00 -2°C° 0.1 mm 1 mps 636 mmHg 84%
    10:00 -2°C° 0.1 mm 1 mps 636 mmHg 82%
    11:00 -1°C° 0.1 mm 1 mps 636 mmHg 79%
    12:00 0°C° 0.1 mm 1 mps 636 mmHg 77%
    13:00 0°C° 0.1 mm 1 mps 636 mmHg 78%
    14:00 0°C° 0.1 mm 1 mps 636 mmHg 78%
    15:00 0°C° 0.1 mm 1 mps 635 mmHg 79%
    16:00 -1°C° 0.1 mm 1 mps 636 mmHg 81%
    17:00 -2°C° 0.1 mm 1 mps 636 mmHg 84%
    18:00 -3°C° 0.1 mm 1 mps 636 mmHg 87%
    19:00 -3°C° 0.1 mm 1 mps 636 mmHg 88%
    20:00 -3°C° 0.1 mm 1 mps 636 mmHg 88%
    21:00 -3°C° 0.1 mm 1 mps 636 mmHg 89%
    22:00 -4°C° 0.1 mm 1 mps 636 mmHg 89%
    23:00 -4°C° 0.1 mm 1 mps 637 mmHg 90%
    Show more